Regional Weather Roundup
Issued by NWS

Home | Current Version | Previous Version | Text Only | Print | Product List | Glossary On
Versions: 1 2 3 4 5 6 7 8 9 10 11 12 13 14 15 16 17 18 19 20 21 22 23 24 25 26 27 28 29 30 31 32 33 34 35 36 37 38 39 40 41 42 43 44 45
000
ASUS45 KSLC 280610
RWRUT

UTAH REGIONAL WEATHER ROUNDUP
NATIONAL WEATHER SERVICE SALT LAKE CITY UT
1100 PM MST SAT DEC 27 2014

UTZ001>011-023>025-280700-

NORTHERN UTAH

CITY           SKY/WX    TMP DP  RH WIND       PRES   REMARKS
BRIGHAM CITY   CLOUDY    28  16  59 S9        30.25F WCI  19
HILL AFB       CLOUDY    24  13  62 S13       30.23F WCI  12
LOGAN          CLOUDY    22  15  75 CALM      30.22F
OGDEN          CLOUDY    24  16  71 S10       30.23F WCI  14
PROVO AIRPORT  CLOUDY    21  14  73 SE14      30.26F WCI   8
SALT LAKE CITY CLOUDY    25  16  68 SE8       30.25F WCI  16
VERNAL         MOCLDY    15   9  76 CALM      30.25S
WENDOVER       PTCLDY    25  16  68 NE7       30.22F WCI  17
HEBER CITY     MOCLDY    10   7  85 CALM      30.22F
WEST JORDAN    CLOUDY    25  18  74 S15       30.24F WCI  12

$$

UTZ012>022-026-027-280700-

SOUTHERN/CENTRAL UTAH

CITY           SKY/WX    TMP DP  RH WIND       PRES   REMARKS
BLANDING       CLEAR     18  12  76 N6        30.33S WCI  10
BRYCE CANYON   CLEAR      2  -2  83 W3        30.21F
CEDAR CITY     PTCLDY     4   0  83 S6        30.24F WCI  -7
DELTA          CLEAR     14   9  81 CALM      30.27S
MILFORD        CLEAR     -1  -5  82 S7        30.25F WCI -14
MOAB/CYNLANDS  CLEAR     12   7  80 CALM      30.29R
PRICE          CLEAR     16   6  65 NE8       30.22F WCI   5
ST GEORGE      PTCLDY    25   3  39 SE5       30.37S WCI  19
KANAB          CLEAR     18  12  79 NE5       30.33S WCI  11

$$

REGIONAL REPORTS     COLORADO/ARIZONA

CITY           SKY/WX    TMP DP  RH WIND       PRES   REMARKS
CRAIG, CO      CLOUDY     7   3  84 CALM      30.20F
GRAND JUNCTION MOCLDY    15  10  80 NE3       30.30S
RIFLE          MOCLDY    11   5  77 CALM      30.29S
MONTROSE       PTCLDY    12   6  77 SE6       30.30F WCI   3
CORTEZ         CLEAR     10   5  80 NE6       30.27F WCI   0
PAGE, AZ       CLEAR     29   9  43 W3        30.29F
GRAND CANYON   CLEAR     10   6  84 CALM      30.26F
KINGMAN        CLEAR     24  12  60 E7        30.32F WCI  16
FLAGSTAFF      CLEAR     11   6  81 CALM      30.26R

$$

REGIONAL REPORTS    NEVADA/IDAHO/WYOMING

CITY           SKY/WX    TMP DP  RH WIND       PRES   REMARKS
LAS VEGAS, NV  PTCLDY    37  10  32 S9        30.32F WCI  30
ELY            PTCLDY    10   5  80 S7        30.23S WCI  -1
ELKO           CLOUDY    26  20  77 CALM      30.21S
POCATELLO, ID  CLOUDY    25  20  81 S18       30.14F WCI  11
BURLEY         CLOUDY    28  18  66 SW17      30.14F WCI  16
EVANSTON, WY   CLOUDY    14   3  61 SW21G29   30.09F WCI  -4
ROCK SPRINGS   CLOUDY    14   6  70 SW15      30.09F WCI  -1

$$


USA.gov is the U.S. government's official web portal to all federal, state and local government web resources and services.